This demonstration page uses our WeatherBlox Daily Observations layout. Learn more.

40.92945, -100.16068

Hourly Observations for March 12, 2018

Temp ( °F °C ) Dew Point ( °F °C ) Humidity (%) Winds ( mph kmh ) Pressure ( in mb ) Visibility ( mi km ) Precip ( " mm )
12:15 am 00:15 Clear 25 -3.9 19 -7.3 78 78 Calm 30.53 1034 10 16.0934 0 0
12:35 am 00:35 Clear 24 -4.3 19 -7.4 79 79 NE 3 6 30.53 1034 10 16.0934 0 0
12:55 am 00:55 Clear 22 -5.5 17 -8.3 81 81 Calm 30.56 1035 10 16.0934 0 0
1:15 am 01:15 Clear 21 -5.9 17 -8.2 84 84 Calm 30.56 1035 10 16.0934 0 0
1:35 am 01:35 Clear 22 -5.6 18 -7.9 84 84 Calm 30.56 1035 10 16.0934 0 0
1:55 am 01:55 Clear 21 -6.2 17 -8.4 85 85 Calm 30.56 1035 10 16.0934 0 0
2:15 am 02:15 Clear 20 -6.7 16 -8.9 85 85 Calm 30.56 1035 10 16.0934 0 0
2:35 am 02:35 Clear 21 -6.2 17 -8.2 86 86 WNW 5 7 30.56 1035 10 16.0934 0 0
2:55 am 02:55 Clear 21 -6.2 18 -8 87 87 WNW 6 9 30.56 1035 10 16.0934 0 0
3:15 am 03:15 Clear 20 -6.5 17 -8.3 87 87 WNW 3 6 30.56 1035 10 16.0934 0 0
3:35 am 03:35 Clear 21 -6.2 17 -8.2 86 86 W 6 9 30.56 1035 10 16.0934 0 0
3:55 am 03:55 Clear 20 -6.6 17 -8.4 87 87 WNW 6 9 30.56 1035 10 16.0934 0 0
4:15 am 04:15 Clear 19 -7 16 -8.8 87 87 NW 5 7 30.56 1035 10 16.0934 0 0
4:35 am 04:35 Clear 19 -7 16 -8.7 88 88 NW 5 7 30.53 1034 10 16.0934 0 0
4:55 am 04:55 Clear 18 -7.7 15 -9.7 86 86 W 3 6 30.53 1034 10 16.0934 0 0
5:15 am 05:15 Clear 19 -7.5 15 -9.3 87 87 NW 5 7 30.53 1034 10 16.0934 0 0
5:35 am 05:35 Clear 19 -7.2 15 -9.2 86 86 WNW 7 11 30.53 1034 10 16.0934 0 0
5:55 am 05:55 Clear 19 -7.2 15 -9.4 84 84 WNW 7 11 30.53 1034 10 16.0934 0 0
6:15 am 06:15 Clear 18 -7.6 15 -9.7 85 85 Calm 30.53 1034 10 16.0934 0 0
6:35 am 06:35 Clear 20 -6.9 16 -9 85 85 WNW 3 6 30.53 1034 10 16.0934 0 0
6:55 am 06:55 Clear 19 -7.3 15 -9.5 84 84 NW 5 7 30.53 1034 10 16.0934 0 0
7:15 am 07:15 Clear 18 -7.7 14 -9.8 85 85 WNW 5 7 30.53 1034 10 16.0934 0 0
7:35 am 07:35 Clear 18 -8 14 -10 86 86 WNW 6 9 30.56 1035 10 16.0934 0 0
7:55 am 07:55 Clear 18 -7.9 14 -9.8 86 86 Calm 30.59 1036 10 16.0934 0 0
8:15 am 08:15 Sunny 17 -8.1 14 -10.1 86 86 W 7 11 30.59 1036 10 16.0934 0 0
8:35 am 08:35 Sunny 20 -6.5 17 -8.6 85 85 WNW 7 11 30.56 1035 10 16.0934 0 0
8:55 am 08:55 Sunny 22 -5.4 19 -7.5 85 85 WNW 5 7 30.56 1035 10 16.0934 0 0
9:15 am 09:15 Sunny 24 -4.2 20 -6.6 84 84 NW 5 7 30.53 1034 10 16.0934 0 0
9:35 am 09:35 Sunny 26 -3.1 21 -6 81 81 NW 3 6 30.53 1034 10 16.0934 0 0
9:55 am 09:55 Sunny 29 -1.9 23 -5.1 79 79 NW 5 7 30.53 1034 10 16.0934 0 0
10:15 am 10:15 Sunny 31 -0.7 24 -4.6 75 75 NW 5 7 30.5 1033 10 16.0934 0 0
10:35 am 10:35 Sunny 32 0 23 -4.9 70 70 NW 3 6 30.5 1033 10 16.0934 0 0
10:55 am 10:55 Sunny 34 1 23 -5.2 64 64 Calm 30.5 1033 10 16.0934 0 0
11:15 am 11:15 Sunny 36 2.3 22 -5.8 55 55 E 5 7 30.48 1032 10 16.0934 0 0
11:35 am 11:35 Sunny 37 3 18 -7.8 45 45 NE 5 7 30.48 1032 10 16.0934 0 0
11:55 am 11:55 Sunny 38 3.6 15 -9.4 38 38 E 7 11 30.48 1032 10 16.0934 0 0
12:15 pm 12:15 Sunny 40 4.2 15 -9.5 37 37 E 5 7 30.45 1031 10 16.0934 0 0
12:35 pm 12:35 Sunny 40 4.7 12 -11.3 31 31 Calm 30.45 1031 10 16.0934 0 0
12:55 pm 12:55 Sunny 41 5 11 -11.6 29 29 Calm 30.45 1031 10 16.0934 0 0
1:15 pm 13:15 Sunny 43 5.9 13 -10.6 30 30 Calm 30.42 1030 10 16.0934 0 0
1:35 pm 13:35 Sunny 43 5.9 11 -11.4 28 28 Calm 30.42 1030 10 16.0934 0 0
1:55 pm 13:55 Sunny 44 6.6 12 -10.9 28 28 E 3 6 30.42 1030 10 16.0934 0 0
2:15 pm 14:15 Sunny 45 7.1 10 -12.1 24 24 SSE 5 7 30.36 1028 10 16.0934 0 0
2:35 pm 14:35 Sunny 46 7.8 11 -11.6 24 24 Calm 30.36 1028 10 16.0934 0 0
2:55 pm 14:55 Sunny 47 8.3 13 -10.7 25 25 E 6 9 30.36 1028 10 16.0934 0 0
3:15 pm 15:15 Sunny 47 8.2 10 -12.4 22 22 Calm 30.36 1028 10 16.0934 0 0
3:35 pm 15:35 Sunny 48 8.8 11 -11.6 22 22 NW 3 6 30.33 1027 10 16.0934 0 0
3:55 pm 15:55 Sunny 49 9.3 10 -12 21 21 E 5 7 30.33 1027 10 16.0934 0 0
4:15 pm 16:15 Sunny 48 9 10 -12.3 21 21 ENE 3 6 30.33 1027 10 16.0934 0 0
4:35 pm 16:35 Sunny 49 9.3 11 -11.7 22 22 Calm 30.33 1027 10 16.0934 0 0
4:55 pm 16:55 Sunny 49 9.4 11 -11.9 21 21 E 7 11 30.3 1026 10 16.0934 0 0
5:15 pm 17:15 Partly Cloudy 49 9.3 11 -11.4 22 22 ENE 7 11 30.33 1027 10 16.0934 0 0
5:35 pm 17:35 Sunny 49 9.3 11 -11.5 22 22 ENE 7 11 30.33 1027 10 16.0934 0 0
5:55 pm 17:55 Sunny 49 9.7 11 -11.6 21 21 NE 3 6 30.3 1026 10 16.0934 0 0
6:15 pm 18:15 Sunny 48 8.8 12 -10.9 24 24 E 6 9 30.33 1027 10 16.0934 0 0
6:35 pm 18:35 Sunny 47 8.5 12 -11 24 24 E 8 13 30.33 1027 10 16.0934 0 0
6:55 pm 18:55 Sunny 47 8.2 13 -10.6 25 25 E 8 13 30.33 1027 10 16.0934 0 0
7:15 pm 19:15 Sunny 46 7.7 13 -10.4 27 27 E 5 7 30.33 1027 10 16.0934 0 0
7:35 pm 19:35 Sunny 44 6.4 12 -11.1 28 28 E 3 6 30.33 1027 10 16.0934 0 0
7:55 pm 19:55 Clear 43 6.1 12 -11.1 28 28 E 3 6 30.36 1028 10 16.0934 0 0
8:15 pm 20:15 Clear 41 5.1 13 -10.4 32 32 E 3 6 30.39 1029 10 16.0934 0 0
8:35 pm 20:35 Clear 38 3.4 14 -9.8 38 38 Calm 30.42 1030 10 16.0934 0 0
8:55 pm 20:55 Clear 37 2.6 16 -9.1 42 42 Calm 30.42 1030 10 16.0934 0 0
9:15 pm 21:15 Clear 34 0.9 19 -7.1 56 56 Calm 30.42 1030 10 16.0934 0 0
9:35 pm 21:35 Clear 34 1.1 19 -7.5 53 53 NE 3 6 30.42 1030 10 16.0934 0 0
9:55 pm 21:55 Clear 33 0.8 20 -6.9 57 57 ENE 6 9 30.42 1030 10 16.0934 0 0
10:15 pm 22:15 Partly Cloudy 35 1.7 18 -7.6 50 50 E 6 9 30.42 1030 10 16.0934 0 0
10:35 pm 22:35 Partly Cloudy 35 1.4 17 -8.3 49 49 E 5 7 30.42 1030 10 16.0934 0 0
10:55 pm 22:55 Partly Cloudy 33 0.5 18 -8 53 53 E 7 11 30.45 1031 10 16.0934 0 0
11:15 pm 23:15 Clear 32 -0.2 18 -8 56 56 ENE 5 7 30.45 1031 10 16.0934 0 0
11:35 pm 23:35 Clear 31 -0.7 17 -8.2 57 57 E 5 7 30.45 1031 10 16.0934 0 0
11:55 pm 23:55 Clear 30 -1.1 18 -8 60 60 ENE 5 7 30.45 1031 10 16.0934 0 0

Powered by AerisWeather